This is the latest recevied weather packets stored in our database for station/object OM8AKX-12. If no packets are shown the sender has not sent any weather packets the latest 10 day(s).
| Time | Temp. | Humidity | Pressure | Rain* | Wind** | Luminosity | Snow |
|---|---|---|---|---|---|---|---|
| 1787743270 | 23.33° C | 44% | 1013.3 hPa | - | - | - | - |
| 1787742370 | 22.78° C | 45% | 1013.4 hPa | - | - | - | - |
| 1787741470 | 22.22° C | 47% | 1013.6 hPa | - | - | - | - |
| 1787740570 | 21.67° C | 49% | 1013.6 hPa | - | - | - | - |
| 1787739670 | 21.11° C | 49% | 1013.7 hPa | - | - | - | - |
| 1787738769 | 20.56° C | 51% | 1013.7 hPa | - | - | - | - |
| 1787737876 | 20.56° C | 51% | - | - | - | - | - |
| 1787737869 | 20.56° C | 51% | 1013.7 hPa | - | - | - | - |
| 1787736969 | 20° C | 52% | 1013.8 hPa | - | - | - | - |
| 1787736069 | 20° C | 53% | 1013.7 hPa | - | - | - | - |
| 1787735169 | 19.44° C | 53% | 1013.6 hPa | - | - | - | - |
| 1787734269 | 19.44° C | 53% | 1013.5 hPa | - | - | - | - |
| 1787733369 | 20° C | 52% | 1013.3 hPa | - | - | - | - |
| 1787732469 | 19.44° C | 53% | 1013.1 hPa | - | - | - | - |
| 1787731569 | 18.89° C | 55% | 1013.1 hPa | - | - | - | - |
| 1787729769 | 18.33° C | 57% | 1013 hPa | - | - | - | - |
| 1787728869 | 18.33° C | 58% | 1013.2 hPa | - | - | - | - |
| 1787727969 | 17.78° C | 60% | 1013.1 hPa | - | - | - | - |
| 1787727069 | 17.78° C | 59% | 1012.9 hPa | - | - | - | - |
| 1787726169 | 17.78° C | 58% | 1012.6 hPa | - | - | - | - |
| 1787725269 | 17.78° C | 58% | 1012.6 hPa | - | - | - | - |
| 1787724369 | 17.78° C | 57% | 1012.7 hPa | - | - | - | - |
| 1787723469 | 17.78° C | 56% | 1012.6 hPa | - | - | - | - |
| 1787722569 | 17.78° C | 56% | 1012.3 hPa | - | - | - | - |
| 1787721668 | 17.78° C | 56% | 1012.2 hPa | - | - | - | - |
* Rain since midnight (hover to see other rain measurements)
** Current wind speed in m/s (hover to see current wind gust speed)